CZ-3C DEB, 40860

Orbit data source: Space-Track

CZ-3C DEB, 40860 is space debris in HEO originally from a launch on Fri, 24 Feb 2012 UTC launched from the Xichang Space Center, China (XSC). Debris objects in space refer to the collection of defunct objects orbiting the Earth. Examples of debris include non-operational satellites, rocket bodies, and fragments generated from explosions, collisions, or faulty payload assembly.

Loading next visibility...
Identifier
40860, 2012-008AA
Orbit
HEO
Country
Flag of CNCN / PRC
Related business
Manufacturer
CALT
Mission
Spacecraft
Bus & Motor
Unknown
Mass
Unknown
Launch date (UTC)
2012-02-24 (14 years ago)
Launch vehicle
Unknown
Launch site
Xichang Space Center, China (XSC)
Object type
Payload
Rocket body
Debris
Shape & HBR
Unknown shape, 0.2 m
Radar Cross Section
Medium (>0.1 m² and <1 m²)

Expand to show TLE details & history
Last TLE update: 6 days ago

TLE from 6 days ago
0 CZ-3C DEB
1 40860U 12008AA  26202.65375358  .00000175  00000-0  10039-2 0  9991
2 40860  19.1916 313.6823 7246915  17.4416 357.9167  2.23921433  7857
Epoch: 2026-07-21T15:41Z
TLE epoch observation values (Epoch: 2026-07-21T15:41:24.309Z)
Latitude
0.00003°
Longitude
138.939°
Altitude
541.102 km
Speed
9.953 km/s
True Right ascension
20h 54m 50s
True Declination
0° 00' 00"
Sunlit
Object was in full shadow at epoch
Visualization orbit readout
Latitude
Unknown
Longitude
Unknown
Altitude
Unknown
Speed
Unknown
Apparent Right ascension
Unknown
Apparent Declination
Unknown
Sunlit
N/A
Visualization observer readout
Local Sidereal Time
22:24:36
Azimuth
Unknown
Elevation
Unknown
Doppler factor
Unknown
Orbital elements
Apogee altitude
36,194.463 km
Perigee altitude
417.628 km
Semi-major axis
24,684.183 km
Eccentricity
0.72469
Inclination
19.1916°
RAAN
313.6823°
Arg. of periapsis
17.4416°
True anomaly
341.34137°
Mean anomaly
357.9167°
Eccentric anomaly
352.48942°
Mean motion
0.55965 °/min
Orbital period
643.26 mins
BSTAR
0.0010039
Loading maneuver chart data...
Computing Atmospheric mass density...
Loading historical data...
Loading historical data...
Loading historical data...
Loading historical data...
Loading historical data...
Loading historical data...
Loading historical data...

Documentation

Showing up to 5 results
|